This demonstration page uses our WeatherBlox Daily Observations layout. Learn more.

Left ArrowRight Arrow

Hourly Observations for August 18, 2022

Temp ( °F °C ) Dew Point ( °F °C ) Humidity (%) Winds ( mph kmh ) Pressure ( in mb ) Visibility ( mi km ) Precip ( " mm )
12:52 am 00:52 Clear 64 17.8 63 17.2 96 96 Calm 30.07 1018 10 16 0.00 0.00
1:52 am 01:52 Mostly Clear 66 18.9 62 16.7 87 87 E 3 6 30.06 1018 10 16 0.00 0.00
2:52 am 02:52 Partly Cloudy 63 17.2 63 17.2 100 100 Calm 30.06 1018 10 16 0.00 0.00
3:52 am 03:52 Partly Cloudy 65 18.3 62 16.7 90 90 Calm 30.05 1018 10 16 0.00 0.00
4:52 am 04:52 Partly Cloudy 65 18.3 61 16.1 87 87 Calm 30.05 1018 10 16 0.00 0.00
5:52 am 05:52 Partly Cloudy 64 17.8 62 16.7 93 93 SE 6 9 30.04 1017 10 16 0.00 0.00
6:52 am 06:52 Mostly Cloudy 64 17.8 62 16.7 93 93 SSE 7 11 30.05 1018 10 16 0.00 0.00
7:52 am 07:52 Mostly Cloudy 65 18.3 63 17.2 93 93 SE 7 11 30.06 1018 10 16 0.00 0.00
8:52 am 08:52 Mostly Cloudy 69 20.6 64 17.8 84 84 S 5 7 30.06 1018 10 16 0.00 0.00
9:52 am 09:52 Mostly Cloudy 74 23.3 62 16.7 66 66 SSW 8 13 30.04 1017 10 16 0.00 0.00
10:52 am 10:52 Mostly Cloudy 77 25 63 17.2 62 62 SSW 12 19 30.02 1017 10 16 0.00 0.00
11:52 am 11:52 Partly Cloudy 80 26.7 63 17.2 56 56 WSW 12 19 30.00 1016 10 16 0.00 0.00
12:52 pm 12:52 Partly Cloudy 83 28.3 60 15.6 46 46 SW 10 17 29.98 1015 10 16 0.00 0.00
1:52 pm 13:52 Partly Cloudy 83 28.3 62 16.7 49 49 WSW 12 19 29.96 1014 10 16 0.00 0.00
2:52 pm 14:52 Partly Cloudy 85 29.4 62 16.7 46 46 SW 12 19 29.93 1014 10 16 0.00 0.00
3:52 pm 15:52 Partly Cloudy 87 30.6 61 16.1 42 42 SW 14 22 29.91 1013 10 16 0.00 0.00
4:52 pm 16:52 Partly Cloudy 87 30.6 62 16.7 43 43 SSW 13 20 29.88 1012 10 16 0.00 0.00
5:52 pm 17:52 Partly Cloudy 87 30.6 61 16.1 42 42 SSW 14 22 29.85 1011 10 16 0.00 0.00
6:52 pm 18:52 Mostly Cloudy 85 29.4 61 16.1 45 45 SSW 14 22 29.83 1010 10 16 0.00 0.00
7:52 pm 19:52 Mostly Cloudy 84 28.9 62 16.7 48 48 S 13 20 29.82 1010 10 16 0.00 0.00
8:52 pm 20:52 Mostly Cloudy 83 28.3 61 16.1 48 48 SW 13 20 29.82 1010 10 16 0.00 0.00
9:52 pm 21:52 Mostly Cloudy 81 27.2 61 16.1 51 51 S 9 15 29.83 1010 10 16 0.00 0.00
10:52 pm 22:52 Partly Cloudy 79 26.1 62 16.7 56 56 S 5 7 29.83 1010 10 16 0.00 0.00
11:52 pm 23:52 Mostly Cloudy 75 23.9 63 17.2 66 66 Calm 29.85 1011 10 16 0.00 0.00

Powered by AerisWeather